This demonstration page uses our WeatherBlox Daily Observations layout. Learn more.

Left ArrowRight Arrow

38.80484, -77.04692

Hourly Observations for April 9, 2016

Temp ( °F °C ) Dew Point ( °F °C ) Humidity (%) Winds ( mph kmh ) Pressure ( in mb ) Visibility ( mi km ) Precip ( " mm )
12:52 am 00:52 Cloudy 45 7.2 29 -1.7 54 54 SW 5 7 29.79 1009 10 16 0.00 0.00
1:52 am 01:52 Cloudy 44 6.7 29 -1.7 55 55 SE 6 9 29.77 1008 10 16 0.00 0.00
2:52 am 02:52 Cloudy 45 7.2 29 -1.7 54 54 S 8 13 29.75 1008 10 16 0.00 0.00
3:52 am 03:52 Cloudy 45 7.2 29 -1.7 54 54 S 5 7 29.74 1007 10 16 0.00 0.03
4:16 am 04:16 Cloudy with Light Rain 45 7 30 -1 57 57 SSW 13 20 29.74 1007 10 16 0.00 0.00
4:52 am 04:52 Cloudy with Light Rain 44 6.7 32 0 63 63 SSW 12 19 29.73 1007 10 16 0.00 0.03
5:52 am 05:52 Cloudy with Light Rain 42 5.6 35 1.7 76 76 SSE 8 13 29.72 1006 10 16 0.01 0.25
6:23 am 06:23 Cloudy 41 5 35 1.7 79 79 E 10 17 29.71 1006 10 16 0.00 0.03
6:52 am 06:52 Cloudy 41 5 36 2.2 82 82 E 5 7 29.70 1006 10 16 0.00 0.03
7:27 am 07:27 Cloudy with Light Rain 41 5 36 2.2 82 82 WNW 7 11 29.71 1006 5 8 0.00 0.03
7:30 am 07:30 Cloudy with Rain 41 5 36 2 81 81 Calm 29.71 1006 4 6 0.00 0.00
7:39 am 07:39 Cloudy with Light Rain 41 5 36 2.2 82 82 NNW 5 7 29.71 1006 10 16 0.02 0.51
7:45 am 07:45 Cloudy with Light Rain 41 5 36 2.2 82 82 N 6 9 29.71 1006 10 16 0.02 0.51
7:52 am 07:52 Cloudy 41 5 36 2.2 82 82 N 6 9 29.71 1006 10 16 0.02 0.51
7:57 am 07:57 Cloudy with Light Rain 41 5 37 2.8 86 86 N 3 6 29.71 1006 10 16 0.00 0.03
8:52 am 08:52 Cloudy 41 5 37 2.8 86 86 NE 10 17 29.70 1006 10 16 0.00 0.03
9:52 am 09:52 Cloudy with Light Rain 39 3.9 32 0 76 76 WNW 15 24 29.72 1007 8 13 0.00 0.03
9:56 am 09:56 Cloudy with Light Rain/Snow 39 4 34 1 81 81 WNW 13 20 29.74 1007 8 13 0.00 0.00
10:05 am 10:05 Cloudy with Light Rain/Snow 37 2.8 33 0.6 86 86 W 14 22 29.74 1007 5 8 0.02 0.51
10:08 am 10:08 Cloudy with Light Snow 36 2 32 0 87 87 W 12 19 29.74 1007 4 6 0.00 0.00
10:10 am 10:10 Cloudy with Light Snow 36 2 32 0 87 87 W 13 20 29.74 1007 3 5 0.00 0.00
10:12 am 10:12 Cloudy with Light Snow 36 2 32 0 87 87 W 13 20 29.74 1007 3 4 0.00 0.00
10:17 am 10:17 Cloudy with Light Snow 34 1.1 32 0 92 92 W 9 15 29.74 1007 2 3 0.07 1.78
10:22 am 10:22 Cloudy with Light Snow 34 1 32 0 93 93 W 8 13 29.77 1008 2 2 0.00 0.00
10:30 am 10:30 Cloudy with Light Snow 34 1 32 0 93 93 W 7 11 29.74 1007 2 3 0.00 0.00
10:33 am 10:33 Cloudy with Light Snow 34 1.1 32 0 92 92 WNW 10 17 29.74 1007 3 5 0.12 3.05
10:44 am 10:44 Cloudy with Light Rain 36 2 32 0 87 87 W 8 13 29.74 1007 7 11 0.00 0.00
10:46 am 10:46 Cloudy with Light Rain 36 2 32 0 87 87 W 9 15 29.74 1007 7 11 0.00 0.00
10:52 am 10:52 Cloudy with Light Rain/Snow 36 2.2 32 0 86 86 W 9 15 29.75 1008 9 14 0.13 3.30
11:21 am 11:21 Cloudy with Light Rain 39 3.9 32 0 76 76 WNW 13 20 29.77 1008 10 16 0.01 0.25
11:23 am 11:23 Cloudy with Light Rain 39 3.9 32 0 76 76 WNW 14 22 29.77 1008 10 16 0.01 0.25
11:52 am 11:52 Cloudy 40 4.4 33 0.6 77 77 WNW 12 19 29.77 1008 10 16 0.01 0.25
12:52 pm 12:52 Cloudy 45 7.2 27 -2.8 49 49 WNW 17 28 29.77 1008 10 16 0.00 0.03
1:52 pm 13:52 Cloudy 48 8.9 24 -4.4 39 39 WNW 22 35 29.78 1008 10 16 0.00 0.00
2:52 pm 14:52 Mostly Cloudy 50 10 24 -4.4 36 36 WNW 18 30 29.80 1009 10 16 0.00 0.00
3:52 pm 15:52 Cloudy 47 8.3 25 -3.9 42 42 WNW 20 31 29.83 1010 10 16 0.00 0.00
4:52 pm 16:52 Mostly Cloudy 46 7.8 29 -1.7 51 51 NW 23 37 29.88 1012 10 16 0.00 0.00
5:31 pm 17:31 Mostly Cloudy 44 6.7 30 -1.1 58 58 NW 22 35 29.91 1013 10 16 0.00 0.03
5:52 pm 17:52 Mostly Cloudy 43 6.1 27 -2.8 53 53 WNW 25 41 29.93 1013 10 16 0.00 0.03
6:52 pm 18:52 Mostly Cloudy 41 5 26 -3.3 55 55 NW 24 39 29.99 1016 10 16 0.00 0.00
7:52 pm 19:52 Mostly Cloudy 40 4.4 23 -5 51 51 NW 21 33 30.04 1017 10 16 0.00 0.00
8:52 pm 20:52 Partly Cloudy 39 3.9 20 -6.7 46 46 NW 21 33 30.10 1019 10 16 0.00 0.00
9:52 pm 21:52 Mostly Clear 38 3.3 17 -8.3 43 43 NW 22 35 30.15 1021 10 16 0.00 0.00
10:52 pm 22:52 Clear 37 2.8 17 -8.3 44 44 NW 18 30 30.17 1022 10 16 0.00 0.00
11:52 pm 23:52 Clear 36 2.2 16 -8.9 44 44 NW 16 26 30.21 1023 10 16 0.00 0.00

Powered by AerisWeather